Location: Unspecified
(0.0000°N, 0.0000°E)
Time: 23:29:02
(UTC+00:00)

Vanguard 1 - Pass Details

Date: 07 October 2020
Orbit: 649 x 3833 km, 34.3° (Epoch: 28 October)

Event Time Altitude Azimuth Distance (km) Brightness Sun altitude
Rises 06:18:35 0° 252° (WSW) 4,251 12.8 7.7°
Reaches altitude 10° 06:22:22 10° 232° (SW) 3,737 12.6 8.6°
Maximum altitude 06:28:48 18° 193° (SSW) 3,867 13.1 10.2°
Drops below altitude 10° 06:37:49 10° 155° (SSE) 5,453 14.4 12.4°
Sets 06:45:37 0° 139° (SE) 7,134 15.2 14.4°
